QPF
0.16 0.17 0.17 0.15 0.16 0.15 0.13 0.13 0.13 0.11 0.06 0.03 0.02 0.02 0.02 0.02 0.02 0.01 0.01 0.01 0.01 0.01 0.01 0.02 0.02 0.02 0.02 0.02 0.02 0.02 0.02 0.02 0.02 0.02 0.02 0.01 0.01 0.01
0.15 0.18 0.19 0.17 0.15 0.14 0.14 0.14 0.14 0.14 0.10 0.05 0.03 0.03 0.03 0.02 0.02 0.02 0.01 0.02 0.02 0.02 0.02 0.02 0.02 0.03 0.03 0.03 0.03 0.02 0.02 0.02 0.01 0.01 0.02 0.02 0.01 0.01
0.14 0.15 0.17 0.19 0.20 0.20 0.19 0.18 0.18 0.18 0.16 0.09 0.05 0.05 0.05 0.05 0.05 0.04 0.03 0.02 0.02 0.02 0.02 0.02 0.02 0.03 0.03 0.03 0.03 0.03 0.02 0.02 0.02 0.02 0.02 0.02 0.02 0.02
0.11 0.13 0.14 0.16 0.18 0.20 0.21 0.21 0.20 0.20 0.20 0.15 0.09 0.07 0.07 0.06 0.06 0.06 0.05 0.03 0.02 0.02 0.02 0.02 0.02 0.02 0.02 0.02 0.02 0.02 0.02 0.02 0.02 0.02 0.02 0.02 0.02 0.02
0.10 0.11 0.12 0.15 0.17 0.18 0.20 0.20 0.20 0.20 0.20 0.18 0.13 0.08 0.07 0.07 0.07 0.06 0.05 0.04 0.03 0.02 0.02 0.02 0.02 0.02 0.03 0.03 0.03 0.02 0.02 0.02 0.02 0.02 0.03 0.03 0.02 0.02
0.09 0.10 0.11 0.13 0.14 0.16 0.18 0.19 0.18 0.18 0.19 0.20 0.16 0.12 0.10 0.10 0.10 0.10 0.08 0.05 0.04 0.02 0.02 0.02 0.02 0.02 0.03 0.03 0.03 0.03 0.03 0.03 0.03 0.02 0.03 0.03 0.04 0.03
0.07 0.07 0.09 0.11 0.12 0.14 0.17 0.19 0.20 0.22 0.22 0.21 0.19 0.15 0.13 0.12 0.12 0.10 0.09 0.08 0.06 0.05 0.04 0.03 0.03 0.02 0.02 0.03 0.03 0.03 0.03 0.04 0.04 0.04 0.03 0.03 0.04 0.04
0.06 0.06 0.07 0.09 0.11 0.12 0.14 0.15 0.18 0.19 0.19 0.18 0.17 0.13 0.10 0.09 0.09 0.09 0.10 0.10 0.09 0.06 0.05 0.05 0.04 0.04 0.03 0.03 0.04 0.05 0.05 0.05 0.05 0.05 0.04 0.04 0.03 0.03
0.05 0.05 0.05 0.06 0.07 0.06 0.08 0.10 0.11 0.13 0.14 0.13 0.12 0.09 0.07 0.06 0.07 0.09 0.09 0.09 0.08 0.06 0.07 0.08 0.06 0.05 0.04 0.04 0.05 0.05 0.05 0.05 0.06 0.06 0.05 0.04 0.04 0.03
0.04 0.05 0.04 0.04 0.04 0.04 0.05 0.06 0.07 0.08 0.10 0.10 0.09 0.06 0.05 0.05 0.06 0.07 0.09 0.11 0.11 0.09 0.08 0.09 0.07 0.05 0.05 0.05 0.06 0.07 0.06 0.05 0.06 0.06 0.06 0.05 0.04 0.03
0.04 0.04 0.05 0.05 0.06 0.06 0.05 0.05 0.06 0.07 0.08 0.10 0.10 0.09 0.08 0.08 0.09 0.11 0.14 0.16 0.14 0.10 0.08 0.08 0.07 0.07 0.06 0.06 0.06 0.08 0.07 0.06 0.06 0.06 0.06 0.06 0.05 0.04
0.03 0.03 0.04 0.04 0.05 0.05 0.05 0.05 0.06 0.06 0.06 0.08 0.10 0.12 0.11 0.11 0.12 0.10 0.11 0.12 0.12 0.10 0.07 0.07 0.08 0.09 0.10 0.07 0.06 0.06 0.07 0.07 0.07 0.07 0.07 0.06 0.06 0.05
0.02 0.02 0.02 0.03 0.03 0.03 0.03 0.03 0.04 0.04 0.05 0.06 0.07 0.09 0.10 0.12 0.13 0.12 0.10 0.10 0.11 0.10 0.07 0.08 0.09 0.10 0.11 0.09 0.07 0.06 0.06 0.07 0.07 0.07 0.07 0.07 0.06 0.05
0.01 0.01 0.01 0.02 0.03 0.03 0.04 0.04 0.04 0.04 0.04 0.07 0.09 0.11 0.12 0.12 0.11 0.11 0.11 0.10 0.10 0.09 0.09 0.10 0.12 0.12 0.12 0.11 0.09 0.07 0.06 0.07 0.07 0.07 0.07 0.08 0.07 0.05
0.01 0.01 0.01 0.02 0.02 0.03 0.05 0.07 0.07 0.05 0.05 0.07 0.09 0.11 0.11 0.10 0.10 0.11 0.12 0.12 0.12 0.11 0.10 0.11 0.11 0.12 0.13 0.13 0.11 0.08 0.08 0.07 0.07 0.08 0.08 0.09 0.08 0.06
0.01 0.01 0.01 0.01 0.02 0.03 0.04 0.06 0.08 0.08 0.08 0.08 0.08 0.09 0.09 0.10 0.11 0.12 0.12 0.13 0.14 0.14 0.12 0.11 0.11 0.11 0.13 0.12 0.11 0.10 0.09 0.09 0.08 0.08 0.08 0.08 0.08 0.06
0.01 0.01 0.01 0.01 0.02 0.03 0.04 0.05 0.07 0.09 0.10 0.09 0.10 0.10 0.11 0.11 0.11 0.11 0.12 0.12 0.12 0.12 0.12 0.12 0.12 0.13 0.13 0.13 0.12 0.11 0.10 0.10 0.10 0.10 0.10 0.10 0.09 0.07
0.01 0.01 0.01 0.02 0.02 0.03 0.04 0.05 0.07 0.08 0.10 0.11 0.11 0.11 0.12 0.12 0.11 0.11 0.11 0.11 0.12 0.11 0.11 0.11 0.12 0.13 0.14 0.13 0.11 0.10 0.10 0.10 0.10 0.10 0.11 0.10 0.09 0.07
0.01 0.01 0.02 0.02 0.03 0.03 0.04 0.05 0.06 0.07 0.09 0.09 0.10 0.11 0.12 0.13 0.13 0.12 0.11 0.11 0.12 0.11 0.11 0.11 0.12 0.13 0.13 0.10 0.08 0.08 0.10 0.11 0.12 0.12 0.11 0.09 0.08 0.06
0.01 0.01 0.02 0.03 0.03 0.04 0.05 0.06 0.06 0.06 0.07 0.08 0.08 0.09 0.11 0.12 0.13 0.13 0.12 0.11 0.11 0.11 0.11 0.11 0.12 0.12 0.12 0.10 0.09 0.09 0.11 0.13 0.13 0.12 0.11 0.09 0.08 0.08
0.01 0.01 0.02 0.03 0.03 0.04 0.05 0.06 0.06 0.06 0.06 0.06 0.07 0.07 0.08 0.10 0.11 0.11 0.12 0.11 0.11 0.11 0.11 0.11 0.10 0.12 0.14 0.15 0.14 0.13 0.13 0.13 0.12 0.11 0.10 0.10 0.09 0.08
0.01 0.01 0.02 0.02 0.03 0.04 0.04 0.05 0.05 0.05 0.06 0.06 0.06 0.06 0.07 0.08 0.08 0.09 0.10 0.10 0.10 0.10 0.10 0.10 0.11 0.13 0.14 0.13 0.12 0.11 0.12 0.13 0.12 0.11 0.10 0.09 0.08 0.07
0.01 0.01 0.02 0.02 0.03 0.04 0.04 0.05 0.05 0.05 0.05 0.05 0.05 0.05 0.06 0.07 0.07 0.08 0.08 0.08 0.09 0.09 0.10 0.11 0.11 0.11 0.11 0.10 0.10 0.11 0.12 0.12 0.11 0.10 0.09 0.07 0.06 0.05
MSLP
1009.86 1010.04 1010.21 1010.35 1010.43 1010.45 1010.38 1010.23 1009.99 1009.70 1009.38 1009.05 1008.76 1008.55 1008.44 1008.46 1008.61 1008.89 1009.27 1009.72 1010.20 1010.66 1011.07 1011.39 1011.61 1011.73 1011.76 1011.73 1011.68 1011.65 1011.69 1011.80 1012.02 1012.34 1012.73 1013.18 1013.65 1014.09
1010.19 1010.26 1010.33 1010.38 1010.40 1010.38 1010.29 1010.14 1009.92 1009.63 1009.30 1008.97 1008.65 1008.39 1008.22 1008.16 1008.24 1008.44 1008.74 1009.13 1009.56 1009.98 1010.36 1010.67 1010.88 1011.00 1011.03 1011.01 1010.98 1010.97 1011.03 1011.17 1011.40 1011.74 1012.14 1012.60 1013.06 1013.49
1010.89 1010.87 1010.84 1010.82 1010.78 1010.72 1010.61 1010.45 1010.23 1009.95 1009.63 1009.27 1008.92 1008.61 1008.37 1008.22 1008.19 1008.27 1008.46 1008.73 1009.05 1009.38 1009.69 1009.93 1010.10 1010.20 1010.23 1010.23 1010.22 1010.25 1010.34 1010.52 1010.80 1011.16 1011.58 1012.05 1012.50 1012.93
1011.84 1011.74 1011.65 1011.56 1011.48 1011.39 1011.27 1011.11 1010.89 1010.62 1010.29 1009.93 1009.55 1009.18 1008.86 1008.61 1008.45 1008.38 1008.42 1008.53 1008.70 1008.89 1009.08 1009.22 1009.32 1009.37 1009.38 1009.38 1009.40 1009.47 1009.61 1009.84 1010.16 1010.56 1011.01 1011.49 1011.96 1012.39
1012.83 1012.69 1012.56 1012.45 1012.34 1012.24 1012.12 1011.97 1011.76 1011.50 1011.19 1010.81 1010.41 1009.99 1009.59 1009.24 1008.95 1008.74 1008.61 1008.54 1008.53 1008.55 1008.58 1008.59 1008.59 1008.56 1008.53 1008.51 1008.54 1008.63 1008.81 1009.09 1009.45 1009.90 1010.39 1010.90 1011.39 1011.84
1013.71 1013.56 1013.42 1013.30 1013.20 1013.10 1012.99 1012.86 1012.68 1012.44 1012.13 1011.76 1011.35 1010.90 1010.44 1010.00 1009.60 1009.25 1008.96 1008.72 1008.53 1008.37 1008.22 1008.09 1007.95 1007.83 1007.72 1007.66 1007.67 1007.76 1007.95 1008.26 1008.66 1009.13 1009.67 1010.21 1010.74 1011.23
1014.34 1014.20 1014.08 1013.97 1013.89 1013.81 1013.73 1013.61 1013.46 1013.25 1012.96 1012.61 1012.20 1011.74 1011.25 1010.76 1010.27 1009.81 1009.39 1009.01 1008.65 1008.33 1008.02 1007.73 1007.46 1007.22 1007.01 1006.88 1006.83 1006.89 1007.06 1007.36 1007.76 1008.26 1008.82 1009.40 1009.98 1010.52
1014.70 1014.58 1014.48 1014.40 1014.33 1014.28 1014.21 1014.13 1013.99 1013.80 1013.55 1013.22 1012.83 1012.38 1011.89 1011.38 1010.85 1010.33 1009.82 1009.33 1008.85 1008.40 1007.95 1007.52 1007.11 1006.74 1006.43 1006.19 1006.06 1006.04 1006.16 1006.41 1006.79 1007.27 1007.84 1008.45 1009.08 1009.68
1014.83 1014.72 1014.64 1014.57 1014.53 1014.48 1014.42 1014.34 1014.22 1014.05 1013.82 1013.53 1013.16 1012.74 1012.28 1011.77 1011.25 1010.71 1010.16 1009.61 1009.05 1008.50 1007.95 1007.41 1006.88 1006.39 1005.96 1005.61 1005.36 1005.24 1005.27 1005.44 1005.76 1006.21 1006.76 1007.39 1008.06 1008.72
1014.83 1014.72 1014.63 1014.57 1014.51 1014.45 1014.38 1014.29 1014.17 1014.00 1013.78 1013.50 1013.17 1012.79 1012.36 1011.90 1011.40 1010.87 1010.32 1009.75 1009.16 1008.55 1007.93 1007.31 1006.69 1006.10 1005.55 1005.08 1004.72 1004.49 1004.40 1004.47 1004.71 1005.10 1005.62 1006.25 1006.95 1007.67
1014.81 1014.68 1014.57 1014.48 1014.38 1014.29 1014.18 1014.05 1013.90 1013.71 1013.49 1013.22 1012.92 1012.57 1012.18 1011.75 1011.29 1010.79 1010.26 1009.69 1009.09 1008.46 1007.80 1007.12 1006.44 1005.77 1005.13 1004.56 1004.09 1003.75 1003.55 1003.52 1003.67 1003.99 1004.47 1005.09 1005.81 1006.57
1014.85 1014.69 1014.53 1014.38 1014.22 1014.07 1013.89 1013.71 1013.51 1013.28 1013.04 1012.77 1012.47 1012.14 1011.78 1011.38 1010.95 1010.47 1009.95 1009.39 1008.79 1008.14 1007.46 1006.75 1006.03 1005.31 1004.61 1003.97 1003.42 1002.99 1002.71 1002.60 1002.67 1002.93 1003.38 1003.98 1004.70 1005.50
1014.97 1014.75 1014.53 1014.31 1014.08 1013.84 1013.59 1013.33 1013.07 1012.80 1012.53 1012.24 1011.93 1011.60 1011.24 1010.85 1010.42 1009.94 1009.42 1008.85 1008.23 1007.57 1006.87 1006.14 1005.39 1004.64 1003.92 1003.25 1002.66 1002.19 1001.86 1001.70 1001.73 1001.95 1002.37 1002.96 1003.69 1004.51
1015.13 1014.85 1014.56 1014.26 1013.94 1013.62 1013.29 1012.97 1012.65 1012.33 1012.01 1011.70 1011.37 1011.02 1010.64 1010.23 1009.77 1009.25 1008.69 1008.08 1007.43 1006.73 1006.00 1005.25 1004.50 1003.75 1003.03 1002.37 1001.79 1001.31 1000.98 1000.82 1000.84 1001.05 1001.47 1002.06 1002.80 1003.63
1015.25 1014.92 1014.56 1014.18 1013.79 1013.40 1013.00 1012.62 1012.25 1011.89 1011.55 1011.20 1010.84 1010.46 1010.04 1009.57 1009.05 1008.47 1007.83 1007.15 1006.42 1005.67 1004.91 1004.14 1003.38 1002.65 1001.96 1001.34 1000.80 1000.38 1000.09 999.97 1000.02 1000.26 1000.69 1001.29 1002.04 1002.88
1015.27 1014.88 1014.47 1014.04 1013.59 1013.15 1012.71 1012.29 1011.90 1011.52 1011.15 1010.78 1010.39 1009.96 1009.48 1008.93 1008.32 1007.64 1006.90 1006.12 1005.31 1004.49 1003.67 1002.88 1002.12 1001.42 1000.79 1000.23 999.77 999.43 999.22 999.17 999.28 999.57 1000.03 1000.66 1001.42 1002.26
1015.13 1014.71 1014.27 1013.80 1013.33 1012.86 1012.41 1011.98 1011.58 1011.20 1010.82 1010.43 1010.01 1009.53 1008.98 1008.35 1007.63 1006.84 1005.98 1005.09 1004.18 1003.28 1002.41 1001.59 1000.85 1000.18 999.61 999.14 998.78 998.54 998.43 998.47 998.66 999.01 999.51 1000.16 1000.92 1001.76
1014.86 1014.43 1013.98 1013.50 1013.03 1012.57 1012.13 1011.71 1011.32 1010.95 1010.57 1010.16 1009.71 1009.17 1008.55 1007.83 1007.01 1006.10 1005.14 1004.13 1003.13 1002.16 1001.25 1000.42 999.70 999.08 998.58 998.20 997.95 997.81 997.81 997.93 998.20 998.60 999.13 999.80 1000.56 1001.39
1014.52 1014.10 1013.66 1013.20 1012.74 1012.30 1011.88 1011.49 1011.12 1010.75 1010.37 1009.95 1009.46 1008.87 1008.18 1007.38 1006.46 1005.46 1004.40 1003.32 1002.25 1001.23 1000.30 999.48 998.79 998.24 997.81 997.53 997.37 997.34 997.42 997.62 997.94 998.38 998.94 999.60 1000.34 1001.14
1014.20 1013.80 1013.38 1012.95 1012.52 1012.10 1011.71 1011.33 1010.97 1010.61 1010.21 1009.76 1009.23 1008.59 1007.84 1006.96 1005.98 1004.91 1003.79 1002.66 1001.57 1000.55 999.63 998.85 998.22 997.73 997.40 997.20 997.13 997.18 997.33 997.59 997.94 998.40 998.94 999.58 1000.29 1001.05
1013.97 1013.59 1013.20 1012.79 1012.38 1011.98 1011.60 1011.23 1010.86 1010.47 1010.04 1009.55 1008.97 1008.28 1007.48 1006.55 1005.53 1004.43 1003.30 1002.17 1001.10 1000.12 999.26 998.55 998.00 997.60 997.35 997.24 997.25 997.36 997.56 997.84 998.21 998.65 999.17 999.77 1000.43 1001.14
1013.84 1013.49 1013.11 1012.72 1012.31 1011.91 1011.52 1011.12 1010.71 1010.28 1009.81 1009.26 1008.63 1007.89 1007.05 1006.10 1005.07 1003.99 1002.89 1001.82 1000.82 999.92 999.16 998.56 998.10 997.81 997.65 997.62 997.69 997.85 998.08 998.37 998.72 999.14 999.62 1000.16 1000.77 1001.42
1013.78 1013.44 1013.06 1012.66 1012.24 1011.81 1011.37 1010.93 1010.46 1009.97 1009.43 1008.82 1008.14 1007.37 1006.51 1005.57 1004.57 1003.55 1002.53 1001.56 1000.68 999.91 999.28 998.80 998.47 998.28 998.22 998.26 998.39 998.58 998.82 999.11 999.43 999.81 1000.24 1000.73 1001.27 1001.87
Thickness
5594 5597 5599 5602 5603 5605 5605 5604 5601 5602 5606 5611 5611 5614 5613 5612 5611 5607 5605 5604 5601 5600 5598 5596 5595 5593 5591 5590 5588 5586 5585 5583 5581 5580 5580 5579 5578 5578
5583 5585 5589 5592 5593 5595 5595 5595 5594 5594 5598 5603 5602 5603 5602 5601 5600 5598 5597 5595 5593 5592 5590 5589 5587 5585 5583 5581 5580 5578 5577 5576 5574 5573 5572 5572 5571 5571
5570 5573 5576 5579 5581 5582 5583 5584 5584 5583 5586 5590 5590 5590 5590 5589 5588 5586 5585 5584 5583 5583 5582 5580 5578 5576 5574 5572 5571 5569 5568 5568 5567 5566 5564 5564 5563 5563
5557 5559 5562 5565 5567 5569 5571 5571 5572 5573 5573 5576 5577 5576 5577 5577 5576 5574 5573 5573 5572 5572 5571 5570 5568 5566 5564 5563 5562 5560 5559 5558 5558 5557 5556 5555 5555 5555
5543 5545 5548 5550 5552 5554 5555 5557 5558 5560 5560 5562 5563 5563 5563 5563 5562 5562 5561 5560 5560 5559 5558 5558 5556 5555 5553 5552 5551 5551 5550 5549 5548 5548 5547 5547 5547 5547
5529 5531 5533 5535 5536 5539 5541 5542 5544 5546 5547 5548 5549 5548 5548 5548 5547 5547 5547 5546 5546 5545 5545 5544 5543 5542 5542 5541 5541 5541 5540 5540 5539 5539 5539 5538 5538 5538
5516 5518 5519 5521 5522 5524 5526 5527 5529 5530 5532 5533 5534 5532 5532 5531 5531 5531 5531 5531 5531 5531 5531 5531 5530 5530 5530 5530 5530 5530 5530 5530 5530 5529 5529 5530 5529 5529
5502 5503 5505 5507 5508 5509 5511 5512 5513 5514 5516 5518 5518 5518 5518 5517 5516 5515 5514 5512 5515 5516 5514 5517 5516 5517 5518 5518 5519 5519 5520 5520 5520 5519 5519 5519 5519 5520
5488 5490 5491 5492 5492 5493 5495 5496 5496 5497 5499 5501 5502 5502 5502 5501 5500 5499 5498 5498 5500 5500 5496 5501 5501 5503 5505 5505 5506 5507 5508 5509 5509 5509 5508 5508 5508 5508
5474 5475 5476 5476 5476 5477 5478 5478 5479 5480 5482 5483 5484 5485 5485 5485 5484 5484 5484 5483 5482 5481 5480 5483 5486 5487 5490 5490 5491 5492 5493 5495 5496 5496 5495 5495 5495 5496
5459 5459 5459 5459 5460 5461 5461 5460 5462 5463 5463 5464 5464 5466 5467 5467 5466 5465 5463 5462 5464 5465 5462 5464 5468 5468 5471 5473 5475 5475 5477 5478 5480 5481 5481 5481 5481 5482
5444 5443 5443 5443 5443 5442 5441 5441 5442 5444 5445 5446 5447 5448 5448 5448 5447 5446 5445 5444 5446 5448 5447 5445 5447 5446 5450 5454 5456 5457 5459 5461 5463 5465 5466 5467 5467 5468
5429 5427 5426 5426 5425 5425 5424 5423 5423 5425 5426 5427 5428 5430 5430 5430 5430 5429 5428 5427 5428 5431 5431 5427 5428 5428 5429 5434 5436 5439 5441 5444 5446 5448 5450 5452 5453 5455
5412 5410 5409 5409 5408 5408 5407 5406 5406 5407 5406 5407 5408 5410 5411 5412 5412 5412 5412 5412 5412 5413 5414 5412 5412 5413 5413 5416 5419 5422 5424 5427 5430 5432 5435 5437 5439 5441
5396 5396 5395 5393 5392 5391 5390 5389 5388 5386 5386 5387 5389 5390 5392 5393 5394 5394 5395 5395 5396 5396 5397 5397 5398 5398 5399 5402 5405 5407 5409 5412 5414 5417 5419 5422 5425 5428
5382 5381 5380 5378 5376 5374 5373 5370 5368 5367 5367 5368 5370 5371 5373 5375 5376 5376 5377 5378 5379 5381 5381 5381 5382 5383 5385 5387 5390 5393 5395 5397 5400 5402 5405 5407 5411 5414
5368 5366 5363 5361 5359 5357 5355 5353 5350 5349 5349 5350 5351 5353 5356 5357 5358 5359 5360 5361 5363 5366 5367 5366 5366 5367 5370 5373 5376 5380 5382 5384 5387 5389 5391 5394 5397 5401
5353 5349 5347 5344 5342 5340 5339 5336 5333 5332 5331 5332 5333 5334 5336 5338 5341 5343 5343 5345 5347 5350 5351 5353 5353 5353 5355 5358 5362 5367 5369 5372 5375 5377 5380 5383 5387 5390
5335 5332 5330 5328 5326 5323 5321 5319 5317 5315 5314 5315 5316 5317 5319 5321 5323 5326 5328 5330 5332 5335 5337 5339 5341 5342 5346 5350 5351 5354 5357 5361 5363 5365 5368 5373 5378 5381
5320 5317 5314 5312 5310 5307 5305 5304 5302 5301 5300 5301 5302 5303 5305 5306 5308 5311 5313 5315 5318 5321 5324 5326 5328 5331 5335 5339 5340 5342 5345 5349 5352 5355 5358 5360 5364 5368
5305 5302 5299 5297 5294 5292 5291 5289 5288 5288 5288 5289 5289 5290 5292 5293 5295 5297 5300 5303 5305 5308 5311 5315 5318 5321 5323 5325 5328 5330 5333 5337 5342 5345 5347 5350 5354 5358
5291 5288 5285 5282 5280 5279 5278 5277 5277 5277 5277 5278 5279 5280 5281 5282 5284 5286 5289 5291 5294 5296 5299 5303 5307 5310 5314 5317 5319 5321 5323 5325 5329 5334 5339 5345 5350 5354
5277 5274 5272 5270 5268 5267 5266 5266 5266 5266 5267 5268 5269 5271 5272 5274 5276 5278 5280 5282 5284 5287 5290 5294 5298 5301 5304 5307 5309 5312 5314 5317 5320 5324 5328 5335 5342 5349